Location: ??????
(42.0089°N, 44.3281°E)
Time: 17:50:52
(UTC+00:00)

USA 267 - Pass Details

Date: 31 May 2022
Orbit: 1101 x 1106 km, 123.0° (Epoch: 28 June)

Event Time Altitude Azimuth Distance (km) Brightness Sun altitude
Rises 17:07:32 0° 51° (NE) 3,924 6.0 -6.4°
Reaches altitude 10° 17:10:22 10° 40° (NE) 2,965 5.5 -6.9°
Maximum altitude 17:15:43 28° 345° (NNW) 1,938 5.3 -7.6°
Drops below altitude 10° 17:21:04 10° 290° (WNW) 2,964 6.9 -8.4°
Sets 17:23:54 0° 279° (W) 3,921 7.3 -8.8°
